Time,TemperatureF,DewpointF,PressureIn,WindDirection,WindDirectionDegrees,WindSpeedMPH,WindSpeedGustMPH,Humidity,HourlyPrecipIn,Conditions,Clouds,dailyrainin,SoftwareType,DateUTC
2013-02-03 00:00:00,36.9,33.4,30.07,SW,235,0.0,0.0,87,0.00,,OVC038,0.00,VWS V14.01,2013-02-03 05:00:00,
2013-02-03 00:01:00,36.9,33.4,30.06,SW,215,1.0,1.0,87,0.00,,OVC038,0.00,VWS V14.01,2013-02-03 05:01:00,
2013-02-03 00:02:00,36.9,33.4,30.06,SW,219,1.0,1.0,87,0.00,,OVC038,0.00,VWS V14.01,2013-02-03 05:02:00,
2013-02-03 00:07:00,36.8,33.3,30.06,SW,217,0.0,1.0,87,0.00,,OVC038,0.00,VWS V14.01,2013-02-03 05:07:00,
2013-02-03 00:12:00,36.8,33.3,30.06,SW,217,0.0,1.0,87,0.00,,OVC038,0.00,VWS V14.01,2013-02-03 05:12:00,
2013-02-03 00:17:00,36.4,32.9,30.06,SW,217,0.0,0.0,87,0.00,,OVC038,0.00,VWS V14.01,2013-02-03 05:17:00,
2013-02-03 00:22:00,36.0,32.8,30.05,SW,217,0.0,0.0,88,0.00,,OVC038,0.00,VWS V14.01,2013-02-03 05:22:00,
2013-02-03 00:27:00,35.7,32.5,30.05,SSW,207,0.0,0.0,88,0.00,,OVC038,0.00,VWS V14.01,2013-02-03 05:27:00,
2013-02-03 00:32:00,35.5,32.6,30.05,SSE,159,1.0,1.0,89,0.00,,OVC038,0.00,VWS V14.01,2013-02-03 05:32:00,
2013-02-03 00:37:00,35.5,32.6,30.05,SSE,159,0.0,0.0,89,0.00,,OVC038,0.00,VWS V14.01,2013-02-03 05:37:00,
2013-02-03 00:42:00,35.5,32.9,30.05,NW,305,1.0,1.0,90,0.00,,OVC044,0.00,VWS V14.01,2013-02-03 05:42:00,
2013-02-03 00:47:00,35.6,32.7,30.05,SSE,160,0.0,1.0,89,0.00,,OVC044,0.00,VWS V14.01,2013-02-03 05:47:00,
2013-02-03 00:52:00,35.7,32.8,30.05,NE,36,0.0,0.0,89,0.00,,OVC044,0.00,VWS V14.01,2013-02-03 05:52:00,
2013-02-03 00:57:00,35.6,32.7,30.05,NE,36,0.0,0.0,89,0.00,,OVC044,0.00,VWS V14.01,2013-02-03 05:57:00,
2013-02-03 01:02:00,35.7,33.1,30.04,WSW,240,0.0,2.0,90,0.00,,OVC041,0.00,VWS V14.01,2013-02-03 06:02:00,
2013-02-03 01:07:00,35.7,33.1,30.04,WSW,240,0.0,0.0,90,0.00,,OVC041,0.00,VWS V14.01,2013-02-03 06:07:00,
2013-02-03 01:12:00,35.6,32.7,30.04,WSW,241,0.0,0.0,89,0.00,,OVC041,0.00,VWS V14.01,2013-02-03 06:12:00,
2013-02-03 01:17:00,35.5,32.9,30.04,SSW,198,0.0,0.0,90,0.00,,OVC041,0.00,VWS V14.01,2013-02-03 06:17:00,
2013-02-03 01:22:00,35.4,32.8,30.04,SSW,198,0.0,0.0,90,0.00,,OVC044,0.00,VWS V14.01,2013-02-03 06:22:00,
2013-02-03 01:27:00,35.3,32.7,30.04,SSW,198,0.0,0.0,90,0.00,,OVC044,0.00,VWS V14.01,2013-02-03 06:27:00,
2013-02-03 01:32:00,35.4,32.8,30.03,SSW,198,0.0,0.0,90,0.00,,OVC044,0.00,VWS V14.01,2013-02-03 06:32:00,
2013-02-03 01:37:00,35.4,32.8,30.03,SSW,198,0.0,0.0,90,0.00,,OVC044,0.00,VWS V14.01,2013-02-03 06:37:00,
2013-02-03 01:42:00,35.4,32.8,30.03,SSW,198,0.0,0.0,90,0.00,,OVC044,0.00,VWS V14.01,2013-02-03 06:42:00,
2013-02-03 01:47:00,35.5,32.9,30.03,SSW,212,1.0,2.0,90,0.00,,OVC044,0.00,VWS V14.01,2013-02-03 06:47:00,
2013-02-03 01:52:00,35.7,32.8,30.02,SW,225,1.0,2.0,89,0.00,,OVC044,0.00,VWS V14.01,2013-02-03 06:52:00,
2013-02-03 01:58:00,35.9,33.0,30.02,WSW,242,0.0,2.0,89,0.00,,OVC044,0.00,VWS V14.01,2013-02-03 06:58:00,
2013-02-03 02:03:00,35.9,33.0,30.02,West,271,0.0,0.0,89,0.00,,OVC042,0.00,VWS V14.01,2013-02-03 07:03:00,
2013-02-03 02:08:00,35.8,32.9,30.02,SW,232,2.0,3.0,89,0.00,,OVC042,0.00,VWS V14.01,2013-02-03 07:08:00,
2013-02-03 02:12:00,35.8,32.9,30.02,WSW,241,0.0,1.0,89,0.00,,OVC042,0.00,VWS V14.01,2013-02-03 07:12:00,
2013-02-03 02:17:00,35.9,33.0,30.01,SW,225,0.0,2.0,89,0.00,,OVC042,0.00,VWS V14.01,2013-02-03 07:17:00,
2013-02-03 02:23:00,35.9,32.7,30.01,North,354,1.0,2.0,88,0.00,,OVC042,0.00,VWS V14.01,2013-02-03 07:23:00,
2013-02-03 02:27:00,36.2,32.4,30.00,NW,312,2.0,2.0,86,0.00,,OVC042,0.00,VWS V14.01,2013-02-03 07:27:00,
2013-02-03 02:32:00,36.4,32.3,30.00,WNW,297,1.0,1.0,85,0.00,,OVC042,0.00,VWS V14.01,2013-02-03 07:32:00,
2013-02-03 02:37:00,36.4,32.0,30.00,WNW,302,1.0,1.0,84,0.00,,OVC042,0.00,VWS V14.01,2013-02-03 07:37:00,
2013-02-03 02:42:00,36.5,31.8,29.99,SW,233,0.0,1.0,83,0.00,,OVC047,0.00,VWS V14.01,2013-02-03 07:42:00,
2013-02-03 02:47:00,36.6,31.6,29.99,SW,229,1.0,2.0,82,0.00,,OVC047,0.00,VWS V14.01,2013-02-03 07:47:00,
2013-02-03 02:52:00,36.7,31.4,30.00,SE,134,1.0,12.0,81,0.00,,OVC047,0.00,VWS V14.01,2013-02-03 07:52:00,
2013-02-03 02:57:00,37.1,31.8,30.00,WNW,293,1.0,2.0,81,0.00,,OVC047,0.00,VWS V14.01,2013-02-03 07:57:00,
2013-02-03 03:02:00,37.3,31.7,30.00,West,266,1.0,2.0,80,0.00,,OVC047,0.00,VWS V14.01,2013-02-03 08:02:00,
2013-02-03 03:07:00,37.6,31.7,30.00,WNW,300,5.0,5.0,79,0.00,,OVC047,0.00,VWS V14.01,2013-02-03 08:07:00,
2013-02-03 03:12:00,37.8,31.9,29.99,WSW,257,1.0,1.0,79,0.00,,OVC047,0.00,VWS V14.01,2013-02-03 08:12:00,
2013-02-03 03:17:00,37.9,32.0,29.99,NNW,336,0.0,2.0,79,0.00,,OVC047,0.00,VWS V14.01,2013-02-03 08:17:00,
2013-02-03 03:22:00,37.9,32.0,29.99,West,279,1.0,4.0,79,0.00,,OVC049,0.00,VWS V14.01,2013-02-03 08:22:00,
2013-02-03 03:27:00,37.9,31.7,29.99,NW,307,0.0,2.0,78,0.00,,OVC049,0.00,VWS V14.01,2013-02-03 08:27:00,
2013-02-03 03:32:00,37.9,32.0,29.99,NNW,333,0.0,1.0,79,0.00,,OVC049,0.00,VWS V14.01,2013-02-03 08:32:00,
2013-02-03 03:37:00,37.7,32.1,29.99,WSW,254,0.0,1.0,80,0.00,,OVC049,0.00,VWS V14.01,2013-02-03 08:37:00,
2013-02-03 03:42:00,37.4,32.1,29.99,SW,218,0.0,1.0,81,0.00,,OVC065,0.00,VWS V14.01,2013-02-03 08:42:00,
2013-02-03 03:47:00,37.2,32.2,29.99,SW,225,1.0,4.0,82,0.00,,OVC065,0.00,VWS V14.01,2013-02-03 08:47:00,
2013-02-03 03:52:00,37.0,32.3,29.99,WSW,253,0.0,0.0,83,0.00,,OVC065,0.00,VWS V14.01,2013-02-03 08:52:00,
2013-02-03 03:57:00,36.8,32.1,29.99,SW,232,0.0,2.0,83,0.00,,OVC065,0.00,VWS V14.01,2013-02-03 08:57:00,
2013-02-03 04:02:00,36.6,31.9,29.99,WNW,286,1.0,1.0,83,0.00,,OVC065,0.00,VWS V14.01,2013-02-03 09:02:00,
2013-02-03 04:07:00,36.5,31.8,29.99,WSW,239,0.0,1.0,83,0.00,,OVC050,0.00,VWS V14.01,2013-02-03 09:07:00,
2013-02-03 04:12:00,36.3,31.6,29.99,SW,235,0.0,1.0,83,0.00,,OVC050,0.00,VWS V14.01,2013-02-03 09:12:00,
2013-02-03 04:17:00,36.2,31.5,29.99,WSW,257,0.0,1.0,83,0.00,,OVC050,0.00,VWS V14.01,2013-02-03 09:17:00,
2013-02-03 04:22:00,36.1,31.1,29.98,NW,326,1.0,2.0,82,0.00,,OVC050,0.00,VWS V14.01,2013-02-03 09:22:00,
2013-02-03 04:27:00,36.1,31.1,29.99,NW,305,0.0,0.0,82,0.00,,OVC050,0.00,VWS V14.01,2013-02-03 09:27:00,
2013-02-03 04:32:00,35.8,30.2,29.99,NNE,12,5.0,5.0,80,0.00,,OVC050,0.00,VWS V14.01,2013-02-03 09:32:00,
2013-02-03 04:37:00,36.2,27.7,29.99,WNW,285,3.0,13.0,71,0.00,,OVC050,0.00,VWS V14.01,2013-02-03 09:37:00,
2013-02-03 04:42:00,36.5,27.3,29.99,West,260,0.0,5.0,69,0.00,,BKN050,0.00,VWS V14.01,2013-02-03 09:42:00,
2013-02-03 04:47:00,36.3,26.8,29.99,WNW,297,3.0,4.0,68,0.00,,BKN050,0.00,VWS V14.01,2013-02-03 09:47:00,
2013-02-03 04:52:00,36.2,26.3,29.99,WSW,257,1.0,3.0,67,0.00,,BKN050,0.00,VWS V14.01,2013-02-03 09:52:00,
2013-02-03 04:57:00,35.8,25.6,29.99,NW,326,1.0,1.0,66,0.00,,BKN050,0.00,VWS V14.01,2013-02-03 09:57:00,
2013-02-03 05:02:00,35.7,25.1,29.99,North,349,0.0,1.0,65,0.00,,SCT042,0.00,VWS V14.01,2013-02-03 10:02:00,
2013-02-03 05:07:00,35.5,24.2,30.00,South,188,3.0,10.0,63,0.00,,SCT042,0.00,VWS V14.01,2013-02-03 10:07:00,
2013-02-03 05:12:00,35.5,24.2,29.99,SW,236,1.0,1.0,63,0.00,,SCT042,0.00,VWS V14.01,2013-02-03 10:12:00,
2013-02-03 05:17:00,35.3,23.2,29.99,NW,318,1.0,8.0,61,0.00,,SCT042,0.00,VWS V14.01,2013-02-03 10:17:00,
2013-02-03 05:22:00,35.6,23.1,30.00,SW,233,2.0,11.0,60,0.00,,CLR,0.00,VWS V14.01,2013-02-03 10:22:00,
2013-02-03 05:27:00,35.5,23.0,29.99,North,351,1.0,6.0,60,0.00,,CLR,0.00,VWS V14.01,2013-02-03 10:27:00,
2013-02-03 05:32:00,35.5,23.0,29.99,WNW,294,4.0,7.0,60,0.00,,CLR,0.00,VWS V14.01,2013-02-03 10:32:00,
2013-02-03 05:37:00,35.5,22.2,30.00,NW,316,0.0,5.0,58,0.00,,CLR,0.00,VWS V14.01,2013-02-03 10:37:00,
2013-02-03 05:42:00,35.3,22.4,30.00,NW,319,3.0,4.0,59,0.00,,CLR,0.00,VWS V14.01,2013-02-03 10:42:00,
2013-02-03 05:47:00,35.2,22.3,30.00,West,266,2.0,9.0,59,0.00,,CLR,0.00,VWS V14.01,2013-02-03 10:47:00,
2013-02-03 05:52:00,35.2,22.3,30.00,NW,312,7.0,8.0,59,0.00,,CLR,0.00,VWS V14.01,2013-02-03 10:52:00,
2013-02-03 05:57:00,35.2,22.3,30.00,WNW,300,1.0,6.0,59,0.00,,CLR,0.00,VWS V14.01,2013-02-03 10:57:00,
2013-02-03 06:02:00,34.9,22.0,30.00,WNW,293,4.0,5.0,59,0.00,,CLR,0.00,VWS V14.01,2013-02-03 11:02:00,
2013-02-03 06:07:00,34.7,22.2,30.00,WNW,283,0.0,0.0,60,0.00,,CLR,0.00,VWS V14.01,2013-02-03 11:07:00,
2013-02-03 06:12:00,34.5,22.5,30.00,NW,307,3.0,3.0,61,0.00,,CLR,0.00,VWS V14.01,2013-02-03 11:12:00,
2013-02-03 06:17:00,34.4,22.4,30.00,North,352,1.0,2.0,61,0.00,,CLR,0.00,VWS V14.01,2013-02-03 11:17:00,
2013-02-03 06:22:00,34.3,22.3,30.00,NW,314,3.0,3.0,61,0.00,,CLR,0.00,VWS V14.01,2013-02-03 11:22:00,
2013-02-03 06:27:00,34.4,22.0,30.00,WNW,284,0.0,5.0,60,0.00,,CLR,0.00,VWS V14.01,2013-02-03 11:27:00,
2013-02-03 06:32:00,34.3,22.3,29.99,West,273,5.0,5.0,61,0.00,,CLR,0.00,VWS V14.01,2013-02-03 11:32:00,
2013-02-03 06:37:00,34.2,22.2,29.99,NW,316,3.0,3.0,61,0.00,,CLR,0.00,VWS V14.01,2013-02-03 11:37:00,
2013-02-03 06:42:00,34.4,22.4,29.99,NW,316,4.0,5.0,61,0.00,,CLR,0.00,VWS V14.01,2013-02-03 11:42:00,
2013-02-03 06:47:00,34.5,22.5,29.99,NNW,328,0.0,2.0,61,0.00,,CLR,0.00,VWS V14.01,2013-02-03 11:47:00,
2013-02-03 06:52:00,34.6,22.9,29.99,NW,305,1.0,2.0,62,0.00,,CLR,0.00,VWS V14.01,2013-02-03 11:52:00,
2013-02-03 06:57:00,34.6,22.9,29.99,NNW,345,3.0,6.0,62,0.00,,CLR,0.00,VWS V14.01,2013-02-03 11:57:00,
2013-02-03 07:02:00,34.8,23.1,29.99,NW,307,4.0,5.0,62,0.00,,CLR,0.00,VWS V14.01,2013-02-03 12:02:00,
2013-02-03 07:07:00,34.9,23.2,29.99,NW,316,2.0,10.0,62,0.00,,CLR,0.00,VWS V14.01,2013-02-03 12:07:00,
2013-02-03 07:12:00,35.0,23.3,29.99,NNW,330,5.0,7.0,62,0.00,,CLR,0.00,VWS V14.01,2013-02-03 12:12:00,
2013-02-03 07:17:00,35.1,23.4,29.99,NW,307,6.0,6.0,62,0.00,,CLR,0.00,VWS V14.01,2013-02-03 12:17:00,
2013-02-03 07:22:00,35.2,23.1,29.99,NW,316,5.0,6.0,61,0.00,,SCT060,0.00,VWS V14.01,2013-02-03 12:22:00,
2013-02-03 07:27:00,35.2,23.5,29.99,WNW,302,6.0,6.0,62,0.00,,SCT060,0.00,VWS V14.01,2013-02-03 12:27:00,
2013-02-03 07:32:00,35.3,23.6,29.99,NW,308,1.0,8.0,62,0.00,,SCT060,0.00,VWS V14.01,2013-02-03 12:32:00,
2013-02-03 07:37:00,35.5,23.8,29.99,West,270,4.0,5.0,62,0.00,,SCT060,0.00,VWS V14.01,2013-02-03 12:37:00,
2013-02-03 07:42:00,35.7,24.0,29.99,WNW,302,2.0,8.0,62,0.00,,SCT060,0.00,VWS V14.01,2013-02-03 12:42:00,
2013-02-03 07:47:00,35.8,24.1,29.99,NW,305,6.0,11.0,62,0.00,,SCT060,0.00,VWS V14.01,2013-02-03 12:47:00,
2013-02-03 07:52:00,36.2,24.1,29.99,NW,311,6.0,10.0,61,0.00,,SCT060,0.00,VWS V14.01,2013-02-03 12:52:00,
2013-02-03 07:57:00,36.5,24.3,29.99,North,349,7.0,7.0,61,0.00,,SCT060,0.00,VWS V14.01,2013-02-03 12:57:00,
2013-02-03 08:02:00,36.7,24.5,29.99,NW,319,1.0,3.0,61,0.00,,SCT060,0.00,VWS V14.01,2013-02-03 13:02:00,
2013-02-03 08:07:00,36.8,25.0,29.99,NNW,333,0.0,3.0,62,0.00,,SCT060,0.00,VWS V14.01,2013-02-03 13:07:00,
2013-02-03 08:12:00,37.0,24.8,29.99,NW,324,1.0,1.0,61,0.00,,SCT060,0.00,VWS V14.01,2013-02-03 13:12:00,
2013-02-03 08:17:00,37.5,25.7,29.99,ENE,73,1.0,2.0,62,0.00,,SCT060,0.00,VWS V14.01,2013-02-03 13:17:00,
2013-02-03 08:22:00,37.9,25.3,29.99,NW,311,2.0,10.0,60,0.00,,SCT060,0.00,VWS V14.01,2013-02-03 13:22:00,
2013-02-03 08:27:00,38.0,25.4,29.99,NW,322,2.0,3.0,60,0.00,,SCT060,0.00,VWS V14.01,2013-02-03 13:27:00,
2013-02-03 08:32:00,38.3,25.6,29.98,NW,323,0.0,3.0,60,0.00,,SCT060,0.00,VWS V14.01,2013-02-03 13:32:00,
2013-02-03 08:37:00,38.8,26.5,29.99,West,260,0.0,0.0,61,0.00,,SCT060,0.00,VWS V14.01,2013-02-03 13:37:00,
2013-02-03 08:42:00,39.5,26.4,29.99,SW,226,2.0,5.0,59,0.00,,SCT060,0.00,VWS V14.01,2013-02-03 13:42:00,
2013-02-03 08:47:00,39.8,26.2,29.99,West,276,0.0,2.0,58,0.00,,SCT060,0.00,VWS V14.01,2013-02-03 13:47:00,
2013-02-03 08:52:00,40.3,26.3,29.99,West,269,1.0,3.0,57,0.00,,SCT060,0.00,VWS V14.01,2013-02-03 13:52:00,
2013-02-03 08:57:00,40.5,26.0,29.99,WSW,245,2.0,7.0,56,0.00,,SCT060,0.00,VWS V14.01,2013-02-03 13:57:00,
2013-02-03 09:02:00,40.4,26.0,29.99,West,264,3.0,9.0,56,0.00,,CLR,0.00,VWS V14.01,2013-02-03 14:02:00,
2013-02-03 09:07:00,40.3,26.3,29.99,West,260,1.0,3.0,57,0.00,,CLR,0.00,VWS V14.01,2013-02-03 14:07:00,
2013-02-03 09:12:00,41.1,27.5,30.00,WNW,287,3.0,5.0,58,0.00,,CLR,0.00,VWS V14.01,2013-02-03 14:12:00,
2013-02-03 09:17:00,41.6,27.1,30.00,NNW,342,1.0,5.0,56,0.00,,CLR,0.00,VWS V14.01,2013-02-03 14:17:00,
2013-02-03 09:22:00,42.2,27.2,29.99,WSW,258,1.0,2.0,55,0.00,,SCT110,0.00,VWS V14.01,2013-02-03 14:22:00,
2013-02-03 09:27:00,42.9,27.4,29.99,WNW,302,2.0,5.0,54,0.00,,SCT110,0.00,VWS V14.01,2013-02-03 14:27:00,
2013-02-03 09:32:00,42.8,27.3,29.99,SW,236,0.0,3.0,54,0.00,,SCT110,0.00,VWS V14.01,2013-02-03 14:32:00,
2013-02-03 09:37:00,43.0,27.5,29.99,WNW,289,3.0,3.0,54,0.00,,SCT110,0.00,VWS V14.01,2013-02-03 14:37:00,
2013-02-03 09:42:00,43.1,27.6,29.99,West,277,0.0,1.0,54,0.00,,BKN110,0.00,VWS V14.01,2013-02-03 14:42:00,
2013-02-03 09:47:00,42.9,27.4,29.99,WNW,301,1.0,2.0,54,0.00,,BKN110,0.00,VWS V14.01,2013-02-03 14:47:00,
2013-02-03 09:52:00,43.4,27.9,29.99,North,6,2.0,2.0,54,0.00,,BKN110,0.00,VWS V14.01,2013-02-03 14:52:00,
2013-02-03 09:57:00,44.4,27.9,29.99,NW,307,1.0,2.0,52,0.00,,BKN110,0.00,VWS V14.01,2013-02-03 14:57:00,
2013-02-03 10:02:00,44.8,27.8,29.99,WSW,250,1.0,3.0,51,0.00,,OVC100,0.00,VWS V14.01,2013-02-03 15:02:00,
2013-02-03 10:07:00,45.1,27.6,29.98,SSW,207,1.0,2.0,50,0.00,,OVC100,0.00,VWS V14.01,2013-02-03 15:07:00,
2013-02-03 10:12:00,45.1,27.6,29.98,WNW,300,1.0,2.0,50,0.00,,OVC100,0.00,VWS V14.01,2013-02-03 15:12:00,
2013-02-03 10:17:00,45.2,27.7,29.99,WNW,302,3.0,3.0,50,0.00,,OVC100,0.00,VWS V14.01,2013-02-03 15:17:00,
2013-02-03 10:22:00,44.9,27.4,29.99,SW,229,6.0,8.0,50,0.00,,OVC100,0.00,VWS V14.01,2013-02-03 15:22:00,
2013-02-03 10:27:00,45.2,28.6,29.99,North,7,0.0,2.0,52,0.00,,OVC100,0.00,VWS V14.01,2013-02-03 15:27:00,
2013-02-03 10:32:00,45.8,28.2,29.99,West,277,4.0,5.0,50,0.00,,OVC100,0.00,VWS V14.01,2013-02-03 15:32:00,
2013-02-03 10:37:00,46.0,27.9,29.98,WNW,294,0.0,2.0,49,0.00,,OVC100,0.00,VWS V14.01,2013-02-03 15:37:00,
2013-02-03 10:42:00,45.9,27.3,29.98,West,264,8.0,14.0,48,0.00,,BKN120,0.00,VWS V14.01,2013-02-03 15:42:00,
2013-02-03 10:47:00,44.8,27.3,29.98,WNW,287,5.0,6.0,50,0.00,,BKN120,0.00,VWS V14.01,2013-02-03 15:47:00,
2013-02-03 10:52:00,45.2,27.2,29.98,WSW,250,0.0,7.0,49,0.00,,BKN120,0.00,VWS V14.01,2013-02-03 15:52:00,
2013-02-03 10:57:00,46.7,28.6,29.98,West,269,4.0,6.0,49,0.00,,BKN120,0.00,VWS V14.01,2013-02-03 15:57:00,
2013-02-03 11:02:00,47.1,27.9,29.98,NNW,327,1.0,4.0,47,0.00,,SCT120,0.00,VWS V14.01,2013-02-03 16:02:00,
2013-02-03 11:08:00,47.0,28.3,29.97,WNW,297,0.0,5.0,48,0.00,,SCT120,0.00,VWS V14.01,2013-02-03 16:08:00,
2013-02-03 11:13:00,46.8,28.7,29.97,NNW,338,2.0,3.0,49,0.00,,SCT120,0.00,VWS V14.01,2013-02-03 16:13:00,
2013-02-03 11:18:00,46.9,28.2,29.97,NW,313,4.0,6.0,48,0.00,,SCT120,0.00,VWS V14.01,2013-02-03 16:18:00,
2013-02-03 11:22:00,46.8,29.2,29.97,West,276,1.0,3.0,50,0.00,,SCT110,0.00,VWS V14.01,2013-02-03 16:22:00,
2013-02-03 11:28:00,47.3,30.1,29.97,South,191,1.0,3.0,51,0.00,,SCT110,0.00,VWS V14.01,2013-02-03 16:28:00,
2013-02-03 11:33:00,47.3,28.6,29.97,WSW,253,1.0,7.0,48,0.00,,SCT110,0.00,VWS V14.01,2013-02-03 16:33:00,
2013-02-03 11:38:00,46.9,28.2,29.96,WNW,295,3.0,7.0,48,0.00,,SCT110,0.00,VWS V14.01,2013-02-03 16:38:00,
2013-02-03 11:43:00,46.4,28.3,29.96,SSW,213,2.0,4.0,49,0.00,,BKN110,0.00,VWS V14.01,2013-02-03 16:43:00,
2013-02-03 11:48:00,46.0,27.9,29.95,NW,322,5.0,10.0,49,0.00,,BKN110,0.00,VWS V14.01,2013-02-03 16:48:00,
2013-02-03 11:53:00,45.6,28.5,29.95,WSW,258,0.0,2.0,51,0.00,,BKN110,0.00,VWS V14.01,2013-02-03 16:53:00,
2013-02-03 11:58:00,46.4,29.3,29.95,NNW,330,2.0,3.0,51,0.00,,BKN110,0.00,VWS V14.01,2013-02-03 16:58:00,
2013-02-03 12:03:00,46.3,28.2,29.94,WNW,291,1.0,5.0,49,0.00,,OVC080,0.00,VWS V14.01,2013-02-03 17:03:00,
2013-02-03 12:08:00,46.3,28.7,29.94,North,8,1.0,3.0,50,0.00,,OVC080,0.00,VWS V14.01,2013-02-03 17:08:00,
2013-02-03 12:13:00,46.2,28.6,29.94,NNW,330,2.0,3.0,50,0.00,,OVC080,0.00,VWS V14.01,2013-02-03 17:13:00,
2013-02-03 12:18:00,46.4,28.8,29.94,West,271,3.0,3.0,50,0.00,,OVC080,0.00,VWS V14.01,2013-02-03 17:18:00,
2013-02-03 12:23:00,46.4,28.8,29.94,West,277,6.0,15.0,50,0.00,,BKN070,0.00,VWS V14.01,2013-02-03 17:23:00,
2013-02-03 12:28:00,46.0,28.9,29.94,NW,322,8.0,12.0,51,0.00,,BKN070,0.00,VWS V14.01,2013-02-03 17:28:00,
2013-02-03 12:33:00,45.5,28.4,29.94,NW,309,14.0,27.0,51,0.00,,BKN070,0.00,VWS V14.01,2013-02-03 17:33:00,
2013-02-03 12:38:00,45.9,29.3,29.94,NW,307,12.0,13.0,52,0.00,,BKN070,0.00,VWS V14.01,2013-02-03 17:38:00,
2013-02-03 12:43:00,45.6,29.0,29.93,NNW,336,7.0,16.0,52,0.00,,BKN070,0.00,VWS V14.01,2013-02-03 17:43:00,
2013-02-03 12:48:00,45.5,28.9,29.93,NW,318,13.0,19.0,52,0.00,,BKN070,0.00,VWS V14.01,2013-02-03 17:48:00,
2013-02-03 12:53:00,45.7,29.6,29.93,WSW,256,1.0,5.0,53,0.00,,BKN070,0.00,VWS V14.01,2013-02-03 17:53:00,
2013-02-03 12:58:00,46.1,29.9,29.93,NW,311,13.0,15.0,53,0.00,,BKN070,0.00,VWS V14.01,2013-02-03 17:58:00,
2013-02-03 13:03:00,46.3,29.2,29.92,WSW,240,2.0,10.0,51,0.00,,SCT070,0.00,VWS V14.01,2013-02-03 18:03:00,
2013-02-03 13:08:00,46.6,29.0,29.92,NW,326,10.0,22.0,50,0.00,,SCT070,0.00,VWS V14.01,2013-02-03 18:08:00,
2013-02-03 13:13:00,46.6,29.0,29.91,NW,307,13.0,22.0,50,0.00,,SCT070,0.00,VWS V14.01,2013-02-03 18:13:00,
2013-02-03 13:18:00,46.6,29.5,29.92,ENE,60,2.0,13.0,51,0.00,,SCT070,0.00,VWS V14.01,2013-02-03 18:18:00,
2013-02-03 13:23:00,46.5,29.4,29.92,North,349,5.0,12.0,51,0.00,,SCT047,0.00,VWS V14.01,2013-02-03 18:23:00,
2013-02-03 13:28:00,47.1,30.4,29.92,NW,307,6.0,7.0,52,0.00,,SCT047,0.00,VWS V14.01,2013-02-03 18:28:00,
2013-02-03 13:33:00,47.4,29.7,29.92,NNW,330,5.0,16.0,50,0.00,,SCT047,0.00,VWS V14.01,2013-02-03 18:33:00,
2013-02-03 13:38:00,47.3,29.6,29.91,NNW,336,15.0,17.0,50,0.00,,SCT047,0.00,VWS V14.01,2013-02-03 18:38:00,
2013-02-03 13:43:00,46.8,29.2,29.91,NW,319,24.0,25.0,50,0.00,,SCT049,0.00,VWS V14.01,2013-02-03 18:43:00,
2013-02-03 13:48:00,46.3,29.6,29.91,NW,324,13.0,22.0,52,0.00,,SCT049,0.00,VWS V14.01,2013-02-03 18:48:00,
2013-02-03 13:53:00,45.8,28.2,29.90,NW,307,15.0,25.0,50,0.00,,SCT049,0.00,VWS V14.01,2013-02-03 18:53:00,
2013-02-03 13:58:00,45.9,27.8,29.90,WNW,300,16.0,20.0,49,0.00,,SCT049,0.00,VWS V14.01,2013-02-03 18:58:00,
2013-02-03 14:03:00,46.2,28.1,29.90,WNW,300,10.0,16.0,49,0.00,,SCT060,0.00,VWS V14.01,2013-02-03 19:03:00,
2013-02-03 14:08:00,46.4,27.8,29.90,NW,308,22.0,22.0,48,0.00,,SCT060,0.00,VWS V14.01,2013-02-03 19:08:00,
2013-02-03 14:13:00,46.4,28.3,29.90,WNW,302,16.0,16.0,49,0.00,,SCT060,0.00,VWS V14.01,2013-02-03 19:13:00,
2013-02-03 14:18:00,46.1,27.5,29.90,NW,318,6.0,13.0,48,0.00,,SCT060,0.00,VWS V14.01,2013-02-03 19:18:00,
2013-02-03 14:23:00,46.0,27.4,29.90,North,353,3.0,15.0,48,0.00,,SCT060,0.00,VWS V14.01,2013-02-03 19:23:00,
2013-02-03 14:28:00,46.3,26.1,29.90,NW,310,3.0,21.0,45,0.00,,SCT060,0.00,VWS V14.01,2013-02-03 19:28:00,
2013-02-03 14:33:00,46.9,27.2,29.90,NNW,330,18.0,18.0,46,0.00,,SCT060,0.00,VWS V14.01,2013-02-03 19:33:00,
2013-02-03 14:38:00,47.3,27.6,29.90,NW,316,9.0,9.0,46,0.00,,SCT060,0.00,VWS V14.01,2013-02-03 19:38:00,
2013-02-03 14:43:00,47.1,25.8,29.90,West,264,6.0,16.0,43,0.00,,SCT050,0.00,VWS V14.01,2013-02-03 19:43:00,
2013-02-03 14:48:00,47.2,25.9,29.91,West,280,4.0,9.0,43,0.00,,SCT050,0.00,VWS V14.01,2013-02-03 19:48:00,
2013-02-03 14:53:00,47.6,26.2,29.91,WNW,283,5.0,11.0,43,0.00,,SCT050,0.00,VWS V14.01,2013-02-03 19:53:00,
2013-02-03 14:58:00,47.9,27.0,29.91,WSW,242,7.0,14.0,44,0.00,,SCT050,0.00,VWS V14.01,2013-02-03 19:58:00,
2013-02-03 15:03:00,48.0,26.0,29.91,WNW,283,3.0,11.0,42,0.00,,SCT060,0.00,VWS V14.01,2013-02-03 20:03:00,
2013-02-03 15:08:00,48.3,26.9,29.91,NNW,338,4.0,14.0,43,0.00,,SCT060,0.00,VWS V14.01,2013-02-03 20:08:00,
2013-02-03 15:13:00,48.7,27.2,29.92,NNW,348,1.0,3.0,43,0.00,,SCT060,0.00,VWS V14.01,2013-02-03 20:13:00,
2013-02-03 15:18:00,48.9,27.4,29.92,WNW,283,3.0,3.0,43,0.00,,SCT060,0.00,VWS V14.01,2013-02-03 20:18:00,
2013-02-03 15:23:00,49.1,28.1,29.92,WNW,282,3.0,6.0,44,0.00,,CLR,0.00,VWS V14.01,2013-02-03 20:23:00,
2013-02-03 15:28:00,48.9,28.0,29.92,NNE,27,0.0,3.0,44,0.00,,CLR,0.00,VWS V14.01,2013-02-03 20:28:00,
2013-02-03 15:33:00,48.3,28.0,29.93,NW,311,7.0,9.0,45,0.00,,CLR,0.00,VWS V14.01,2013-02-03 20:33:00,
2013-02-03 15:38:00,47.8,27.0,29.93,WNW,297,1.0,12.0,44,0.00,,CLR,0.00,VWS V14.01,2013-02-03 20:38:00,
2013-02-03 15:43:00,47.2,27.0,29.93,NW,308,7.0,7.0,45,0.00,,SCT055,0.00,VWS V14.01,2013-02-03 20:43:00,
2013-02-03 15:48:00,47.2,27.5,29.93,North,359,4.0,7.0,46,0.00,,SCT055,0.00,VWS V14.01,2013-02-03 20:48:00,
2013-02-03 15:53:00,46.7,27.6,29.93,WNW,284,3.0,6.0,47,0.00,,SCT055,0.00,VWS V14.01,2013-02-03 20:53:00,
2013-02-03 15:58:00,47.0,27.3,29.93,WSW,245,6.0,9.0,46,0.00,,SCT055,0.00,VWS V14.01,2013-02-03 20:58:00,
2013-02-03 16:03:00,47.2,26.4,29.94,West,271,8.0,9.0,44,0.00,,SCT060,0.00,VWS V14.01,2013-02-03 21:03:00,
2013-02-03 16:08:00,46.7,26.5,29.94,WSW,251,1.0,4.0,45,0.00,,SCT060,0.00,VWS V14.01,2013-02-03 21:08:00,
2013-02-03 16:13:00,46.1,26.5,29.94,NNW,330,2.0,3.0,46,0.00,,SCT060,0.00,VWS V14.01,2013-02-03 21:13:00,
2013-02-03 16:18:00,45.3,25.2,29.94,NW,311,10.0,12.0,45,0.00,,SCT060,0.00,VWS V14.01,2013-02-03 21:18:00,
2013-02-03 16:23:00,44.5,25.0,29.95,West,269,1.0,11.0,46,0.00,,SCT070,0.00,VWS V14.01,2013-02-03 21:23:00,
2013-02-03 16:28:00,44.0,25.1,29.95,NNE,23,2.0,8.0,47,0.00,,SCT070,0.00,VWS V14.01,2013-02-03 21:28:00,
2013-02-03 16:33:00,43.7,25.3,29.95,West,280,8.0,8.0,48,0.00,,SCT070,0.00,VWS V14.01,2013-02-03 21:33:00,
2013-02-03 16:38:00,43.5,24.6,29.95,SW,232,7.0,19.0,47,0.00,,SCT070,0.00,VWS V14.01,2013-02-03 21:38:00,
2013-02-03 16:43:00,43.4,24.0,29.95,WSW,249,11.0,19.0,46,0.00,,BKN060,0.00,VWS V14.01,2013-02-03 21:43:00,
2013-02-03 16:48:00,43.3,24.9,29.96,WNW,297,4.0,4.0,48,0.00,,BKN060,0.00,VWS V14.01,2013-02-03 21:48:00,
2013-02-03 16:53:00,43.4,24.5,29.97,NE,43,2.0,7.0,47,0.00,,BKN060,0.00,VWS V14.01,2013-02-03 21:53:00,
2013-02-03 16:58:00,43.0,24.7,29.97,NW,326,16.0,17.0,48,0.00,,BKN060,0.00,VWS V14.01,2013-02-03 21:58:00,
2013-02-03 17:03:00,42.7,23.9,29.97,NW,307,16.0,26.0,47,0.00,,BKN070,0.00,VWS V14.01,2013-02-03 22:03:00,
2013-02-03 17:08:00,42.5,23.7,29.97,SW,219,5.0,24.0,47,0.00,,BKN070,0.00,VWS V14.01,2013-02-03 22:08:00,
2013-02-03 17:13:00,42.4,23.6,29.97,NW,313,3.0,16.0,47,0.00,,BKN070,0.00,VWS V14.01,2013-02-03 22:13:00,
2013-02-03 17:18:00,42.3,23.5,29.98,NW,310,5.0,9.0,47,0.00,,OVC060,0.00,VWS V14.01,2013-02-03 22:18:00,
2013-02-03 17:23:00,42.1,23.3,29.98,NW,322,2.0,6.0,47,0.00,,OVC060,0.00,VWS V14.01,2013-02-03 22:23:00,
2013-02-03 17:28:00,41.9,23.2,29.98,NNW,340,17.0,17.0,47,0.00,,OVC060,0.00,VWS V14.01,2013-02-03 22:28:00,
2013-02-03 17:33:00,41.7,23.0,29.98,NW,312,2.0,17.0,47,0.00,,OVC060,0.00,VWS V14.01,2013-02-03 22:33:00,
2013-02-03 17:38:00,41.5,22.8,29.97,WNW,283,3.0,14.0,47,0.00,,OVC060,0.00,VWS V14.01,2013-02-03 22:38:00,
2013-02-03 17:43:00,41.4,23.2,29.97,WNW,283,2.0,9.0,48,0.00,,BKN060,0.00,VWS V14.01,2013-02-03 22:43:00,
2013-02-03 17:48:00,41.2,23.0,29.97,West,278,6.0,16.0,48,0.00,,BKN060,0.00,VWS V14.01,2013-02-03 22:48:00,
2013-02-03 17:53:00,41.1,22.9,29.98,North,3,2.0,8.0,48,0.00,,BKN060,0.00,VWS V14.01,2013-02-03 22:53:00,
2013-02-03 17:58:00,41.0,22.8,29.98,NW,320,4.0,6.0,48,0.00,,BKN060,0.00,VWS V14.01,2013-02-03 22:58:00,
2013-02-03 18:03:00,40.9,22.7,29.97,WNW,301,5.0,11.0,48,0.00,,BKN060,0.00,VWS V14.01,2013-02-03 23:03:00,
2013-02-03 18:08:00,40.9,22.7,29.97,SW,229,3.0,16.0,48,0.00,,BKN060,0.00,VWS V14.01,2013-02-03 23:08:00,
2013-02-03 18:13:00,40.8,22.6,29.98,West,274,3.0,12.0,48,0.00,,BKN060,0.00,VWS V14.01,2013-02-03 23:13:00,
2013-02-03 18:18:00,40.7,23.0,29.98,NW,307,2.0,5.0,49,0.00,,SCT060,0.00,VWS V14.01,2013-02-03 23:18:00,
2013-02-03 18:23:00,40.7,23.0,29.98,NW,313,4.0,11.0,49,0.00,,SCT060,0.00,VWS V14.01,2013-02-03 23:23:00,
2013-02-03 18:28:00,40.6,23.0,29.98,NW,322,9.0,20.0,49,0.00,,SCT060,0.00,VWS V14.01,2013-02-03 23:28:00,
2013-02-03 18:33:00,40.6,23.0,29.99,NW,325,10.0,14.0,49,0.00,,SCT060,0.00,VWS V14.01,2013-02-03 23:33:00,
2013-02-03 18:38:00,40.5,22.9,29.99,WNW,293,5.0,9.0,49,0.00,,CLR,0.00,VWS V14.01,2013-02-03 23:38:00,
2013-02-03 18:43:00,40.4,23.2,29.99,NNW,327,8.0,15.0,50,0.00,,CLR,0.00,VWS V14.01,2013-02-03 23:43:00,
2013-02-03 18:48:00,40.3,23.6,29.99,NW,313,5.0,11.0,51,0.00,,CLR,0.00,VWS V14.01,2013-02-03 23:48:00,
2013-02-03 18:53:00,40.3,23.1,30.00,North,4,2.0,6.0,50,0.00,,CLR,0.00,VWS V14.01,2013-02-03 23:53:00,
2013-02-03 18:58:00,40.2,23.5,30.00,SSW,210,3.0,15.0,51,0.00,,CLR,0.00,VWS V14.01,2013-02-03 23:58:00,
2013-02-03 19:03:00,40.1,23.9,30.00,WNW,298,4.0,13.0,52,0.00,,CLR,0.00,VWS V14.01,2013-02-04 00:03:00,
2013-02-03 19:08:00,40.1,23.9,30.00,NW,311,4.0,15.0,52,0.00,,CLR,0.00,VWS V14.01,2013-02-04 00:08:00,
2013-02-03 19:13:00,39.9,23.7,30.00,WNW,302,4.0,8.0,52,0.00,,CLR,0.00,VWS V14.01,2013-02-04 00:13:00,
2013-02-03 19:18:00,39.9,23.7,30.01,NW,316,4.0,13.0,52,0.00,,CLR,0.00,VWS V14.01,2013-02-04 00:18:00,
2013-02-03 19:23:00,39.9,24.2,30.00,NW,322,4.0,17.0,53,0.00,,CLR,0.00,VWS V14.01,2013-02-04 00:23:00,
2013-02-03 19:28:00,39.7,24.0,30.00,NW,319,3.0,8.0,53,0.00,,CLR,0.00,VWS V14.01,2013-02-04 00:28:00,
2013-02-03 19:33:00,39.6,23.9,30.00,WNW,293,12.0,20.0,53,0.00,,CLR,0.00,VWS V14.01,2013-02-04 00:33:00,
2013-02-03 19:38:00,39.7,24.0,30.01,WNW,297,11.0,16.0,53,0.00,,CLR,0.00,VWS V14.01,2013-02-04 00:38:00,
2013-02-03 19:43:00,39.6,23.9,30.00,NW,314,3.0,4.0,53,0.00,,CLR,0.00,VWS V14.01,2013-02-04 00:43:00,
2013-02-03 19:48:00,39.4,23.7,30.01,NW,305,6.0,6.0,53,0.00,,CLR,0.00,VWS V14.01,2013-02-04 00:48:00,
2013-02-03 19:53:00,39.4,23.7,30.01,West,264,2.0,14.0,53,0.00,,CLR,0.00,VWS V14.01,2013-02-04 00:53:00,
2013-02-03 19:58:00,39.4,23.7,30.01,WNW,302,8.0,13.0,53,0.00,,CLR,0.00,VWS V14.01,2013-02-04 00:58:00,
2013-02-03 20:03:00,39.3,24.1,30.02,NW,305,4.0,9.0,54,0.00,,CLR,0.00,VWS V14.01,2013-02-04 01:03:00,
2013-02-03 20:08:00,39.2,24.0,30.02,WNW,302,2.0,3.0,54,0.00,,CLR,0.00,VWS V14.01,2013-02-04 01:08:00,
2013-02-03 20:13:00,39.1,23.9,30.02,WSW,246,2.0,4.0,54,0.00,,CLR,0.00,VWS V14.01,2013-02-04 01:13:00,
2013-02-03 20:18:00,39.0,24.2,30.02,WNW,298,3.0,7.0,55,0.00,,CLR,0.00,VWS V14.01,2013-02-04 01:18:00,
2013-02-03 20:23:00,38.8,24.0,30.02,SW,227,2.0,3.0,55,0.00,,CLR,0.00,VWS V14.01,2013-02-04 01:23:00,
2013-02-03 20:28:00,38.7,24.4,30.02,NW,316,5.0,6.0,56,0.00,,CLR,0.00,VWS V14.01,2013-02-04 01:28:00,
2013-02-03 20:33:00,38.6,24.7,30.02,NW,323,1.0,3.0,57,0.00,,CLR,0.00,VWS V14.01,2013-02-04 01:33:00,
2013-02-03 20:38:00,38.3,24.4,30.02,NNW,342,1.0,4.0,57,0.00,,CLR,0.00,VWS V14.01,2013-02-04 01:38:00,
2013-02-03 20:43:00,38.3,24.4,30.02,NW,315,0.0,1.0,57,0.00,,CLR,0.00,VWS V14.01,2013-02-04 01:43:00,
2013-02-03 20:48:00,37.9,24.5,30.02,NNW,330,7.0,9.0,58,0.00,,CLR,0.00,VWS V14.01,2013-02-04 01:48:00,
2013-02-03 20:53:00,38.0,24.5,30.03,WNW,302,4.0,4.0,58,0.00,,CLR,0.00,VWS V14.01,2013-02-04 01:53:00,
2013-02-03 20:58:00,38.0,24.1,30.02,NW,312,11.0,12.0,57,0.00,,CLR,0.00,VWS V14.01,2013-02-04 01:58:00,
2013-02-03 21:03:00,38.2,24.3,30.02,WNW,289,1.0,6.0,57,0.00,,CLR,0.00,VWS V14.01,2013-02-04 02:03:00,
2013-02-03 21:08:00,38.2,23.9,30.03,WNW,300,2.0,7.0,56,0.00,,CLR,0.00,VWS V14.01,2013-02-04 02:08:00,
2013-02-03 21:13:00,38.0,24.1,30.03,WSW,238,2.0,6.0,57,0.00,,CLR,0.00,VWS V14.01,2013-02-04 02:13:00,
2013-02-03 21:18:00,37.7,23.9,30.03,WNW,287,0.0,3.0,57,0.00,,CLR,0.00,VWS V14.01,2013-02-04 02:18:00,
2013-02-03 21:23:00,37.3,23.9,30.03,WNW,283,1.0,6.0,58,0.00,,CLR,0.00,VWS V14.01,2013-02-04 02:23:00,
2013-02-03 21:28:00,37.5,23.7,30.03,NW,307,4.0,9.0,57,0.00,,CLR,0.00,VWS V14.01,2013-02-04 02:28:00,
2013-02-03 21:33:00,37.4,23.6,30.03,WNW,287,7.0,8.0,57,0.00,,CLR,0.00,VWS V14.01,2013-02-04 02:33:00,
2013-02-03 21:38:00,37.2,23.8,30.03,West,269,0.0,2.0,58,0.00,,CLR,0.00,VWS V14.01,2013-02-04 02:38:00,
2013-02-03 21:43:00,37.2,23.4,30.03,NW,308,2.0,7.0,57,0.00,,CLR,0.00,VWS V14.01,2013-02-04 02:43:00,
2013-02-03 21:48:00,37.5,22.8,30.03,NW,307,4.0,13.0,55,0.00,,CLR,0.00,VWS V14.01,2013-02-04 02:48:00,
2013-02-03 21:53:00,37.6,22.5,30.02,NW,313,11.0,11.0,54,0.00,,CLR,0.00,VWS V14.01,2013-02-04 02:53:00,
2013-02-03 21:58:00,37.6,22.0,30.02,WNW,287,6.0,6.0,53,0.00,,CLR,0.00,VWS V14.01,2013-02-04 02:58:00,
2013-02-03 22:03:00,37.3,22.2,30.02,NNW,330,1.0,4.0,54,0.00,,CLR,0.00,VWS V14.01,2013-02-04 03:03:00,
2013-02-03 22:08:00,37.1,21.6,30.02,SW,226,1.0,10.0,53,0.00,,CLR,0.00,VWS V14.01,2013-02-04 03:08:00,
2013-02-03 22:13:00,36.8,21.7,30.02,WSW,241,4.0,6.0,54,0.00,,CLR,0.00,VWS V14.01,2013-02-04 03:13:00,
2013-02-03 22:18:00,36.5,21.0,30.02,WSW,241,2.0,6.0,53,0.00,,CLR,0.00,VWS V14.01,2013-02-04 03:18:00,
2013-02-03 22:23:00,36.3,21.3,30.03,SSE,167,0.0,1.0,54,0.00,,CLR,0.00,VWS V14.01,2013-02-04 03:23:00,
2013-02-03 23:08:00,34.4,19.0,30.05,WNW,283,2.0,6.0,53,0.00,,CLR,0.00,VWS V14.01,2013-02-04 04:08:00,
2013-02-03 23:13:00,34.4,19.5,30.05,NW,315,1.0,2.0,54,0.00,,CLR,0.00,VWS V14.01,2013-02-04 04:13:00,
2013-02-03 23:18:00,34.0,19.5,30.05,West,271,2.0,3.0,55,0.00,,CLR,0.00,VWS V14.01,2013-02-04 04:18:00,
2013-02-03 23:25:00,33.7,19.7,30.05,WSW,248,0.0,1.0,56,0.00,,CLR,0.00,VWS V14.01,2013-02-04 04:25:00,
2013-02-03 23:30:00,33.3,19.7,30.05,SW,228,1.0,2.0,57,0.00,,CLR,0.00,VWS V14.01,2013-02-04 04:30:00,
2013-02-03 23:35:00,33.1,19.9,30.05,SW,229,0.0,1.0,58,0.00,,CLR,0.00,VWS V14.01,2013-02-04 04:35:00,
2013-02-03 23:40:00,32.9,19.8,30.04,WNW,293,2.0,2.0,58,0.00,,CLR,0.00,VWS V14.01,2013-02-04 04:40:00,
2013-02-03 23:45:00,32.9,19.8,30.04,NW,313,0.0,2.0,58,0.00,,CLR,0.00,VWS V14.01,2013-02-04 04:45:00,
2013-02-03 23:50:00,32.8,20.1,30.04,NW,311,1.0,1.0,59,0.00,,CLR,0.00,VWS V14.01,2013-02-04 04:50:00,
2013-02-03 23:55:00,32.8,19.7,30.04,NNW,341,2.0,2.0,58,0.00,,CLR,0.00,VWS V14.01,2013-02-04 04:55:00,